| time (UTC) | temp F | wind direction | speed MPH | gust MPH | rain 1hr in | rain 24hr in | rain mn in | humidity % | barometer mb |
| 20260509172644 | 55 | 357 | 5.0 | 8.0 | 0.00 | 0.00 | 0.00 | 90 | 1019.1 |
| 20260509171618 | 54 | 289 | 4.0 | 7.0 | 0.00 | 0.00 | 0.00 | 91 | 1019.1 |
| 20260509171105 | 53 | 336 | 0.0 | 5.0 | 0.00 | 0.00 | 0.00 | 91 | 1019.1 |
| 20260509170552 | 53 | 0 | 0.0 | 5.0 | 0.00 | 0.00 | 0.00 | 92 | 1019.1 |
| 20260509170039 | 53 | 0 | 0.0 | 5.0 | 0.00 | 0.00 | 0.00 | 92 | 1019.3 |
| 20260509165526 | 53 | 336 | 2.0 | 5.0 | 0.00 | 0.00 | 0.00 | 92 | 1019.3 |
| 20260509164500 | 52 | 0 | 0.0 | 4.0 | 0.00 | 0.00 | 0.00 | 92 | 1019.2 |
| 20260509163947 | 51 | 0 | 0.0 | 4.0 | 0.00 | 0.00 | 0.00 | 93 | 1019.2 |
| 20260509163434 | 51 | 0 | 0.0 | 4.0 | 0.00 | 0.00 | 0.00 | 93 | 1019.4 |
| 20260509162921 | 51 | 333 | 1.0 | 4.0 | 0.00 | 0.00 | 0.00 | 93 | 1019.5 |
| 20260509161855 | 51 | 0 | 0.0 | 0.0 | 0.00 | 0.00 | 0.00 | 93 | 1019.5 |
| 20260509161342 | 51 | 0 | 0.0 | 0.0 | 0.00 | 0.00 | 0.00 | 93 | 1019.4 |
| 20260509160829 | 51 | 0 | 0.0 | 0.0 | 0.00 | 0.00 | 0.00 | 93 | 1019.6 |
| 20260509160316 | 51 | 0 | 0.0 | 0.0 | 0.00 | 0.00 | 0.00 | 93 | 1019.5 |
| 20260509155805 | 51 | 0 | 0.0 | 0.0 | 0.00 | 0.00 | 0.00 | 93 | 1019.6 |
| 20260509155250 | 50 | 0 | 0.0 | 0.0 | 0.00 | 0.00 | 0.00 | 93 | 1019.7 |
| 20260509154737 | 51 | 0 | 0.0 | 0.0 | 0.00 | 0.00 | 0.00 | 93 | 1019.8 |
| 20260509154224 | 51 | 0 | 0.0 | 0.0 | 0.00 | 0.00 | 0.00 | 93 | 1019.7 |
| 20260509153712 | 50 | 0 | 0.0 | 0.0 | 0.00 | 0.00 | 0.00 | 93 | 1019.7 |
| 20260509153158 | 50 | 0 | 0.0 | 0.0 | 0.00 | 0.00 | 0.00 | 93 | 1019.8 |
| 20260509152645 | 50 | 0 | 0.0 | 0.0 | 0.00 | 0.00 | 0.00 | 93 | 1019.8 |
| 20260509152132 | 50 | 0 | 0.0 | 0.0 | 0.00 | 0.00 | 0.00 | 93 | 1019.8 |
| 20260509151619 | 50 | 0 | 0.0 | 0.0 | 0.00 | 0.00 | 0.00 | 93 | 1019.8 |
| 20260509151106 | 50 | 0 | 0.0 | 0.0 | 0.00 | 0.00 | 0.00 | 93 | 1019.9 |
| 20260509150553 | 50 | 0 | 0.0 | 0.0 | 0.00 | 0.00 | 0.00 | 93 | 1019.8 |
| 20260509150040 | 49 | 0 | 0.0 | 0.0 | 0.00 | 0.00 | 0.00 | 93 | 1020.0 |
| 20260509145528 | 48 | 0 | 0.0 | 0.0 | 0.00 | 0.00 | 0.00 | 93 | 1020.0 |
| 20260509145014 | 48 | 0 | 0.0 | 0.0 | 0.00 | 0.00 | 0.00 | 93 | 1020.1 |
| 20260509144501 | 48 | 0 | 0.0 | 0.0 | 0.00 | 0.00 | 0.00 | 93 | 1020.0 |
| 20260509143948 | 47 | 0 | 0.0 | 0.0 | 0.00 | 0.00 | 0.00 | 93 | 1019.9 |
| 20260509143435 | 47 | 0 | 0.0 | 0.0 | 0.00 | 0.00 | 0.00 | 93 | 1019.9 |
| 20260509142922 | 47 | 0 | 0.0 | 0.0 | 0.00 | 0.00 | 0.00 | 93 | 1019.8 |
| 20260509142408 | 46 | 0 | 0.0 | 0.0 | 0.00 | 0.00 | 0.00 | 93 | 1019.7 |
| 20260509141856 | 46 | 0 | 0.0 | 0.0 | 0.00 | 0.00 | 0.00 | 93 | 1019.7 |
| 20260509141343 | 46 | 0 | 0.0 | 0.0 | 0.00 | 0.00 | 0.00 | 93 | 1019.9 |
| 20260509140830 | 46 | 0 | 0.0 | 0.0 | 0.00 | 0.00 | 0.00 | 93 | 1019.9 |
| 20260509140316 | 46 | 0 | 0.0 | 0.0 | 0.00 | 0.00 | 0.00 | 93 | 1019.9 |
| 20260509135804 | 46 | 0 | 0.0 | 0.0 | 0.00 | 0.00 | 0.00 | 93 | 1019.8 |
| 20260509135250 | 46 | 0 | 0.0 | 0.0 | 0.00 | 0.00 | 0.00 | 93 | 1019.8 |
| 20260509134738 | 46 | 0 | 0.0 | 0.0 | 0.00 | 0.00 | 0.00 | 93 | 1019.7 |
| 20260509133712 | 45 | 0 | 0.0 | 0.0 | 0.00 | 0.00 | 0.00 | 93 | 1019.7 |
| 20260509133200 | 45 | 0 | 0.0 | 0.0 | 0.00 | 0.00 | 0.00 | 93 | 1019.8 |
| 20260509132645 | 45 | 0 | 0.0 | 0.0 | 0.00 | 0.00 | 0.00 | 93 | 1019.8 |
| 20260509132132 | 45 | 0 | 0.0 | 0.0 | 0.00 | 0.00 | 0.00 | 93 | 1019.8 |
| 20260509131106 | 45 | 0 | 0.0 | 0.0 | 0.00 | 0.00 | 0.00 | 93 | 1019.8 |
| 20260509130553 | 45 | 0 | 0.0 | 0.0 | 0.00 | 0.00 | 0.00 | 93 | 1019.9 |
| 20260509130040 | 45 | 0 | 0.0 | 0.0 | 0.00 | 0.00 | 0.00 | 93 | 1020.0 |
| 20260509124501 | 45 | 0 | 0.0 | 0.0 | 0.00 | 0.00 | 0.00 | 93 | 1019.9 |
| 20260509123948 | 45 | 0 | 0.0 | 0.0 | 0.00 | 0.00 | 0.00 | 93 | 1019.9 |
| 20260509123435 | 45 | 0 | 0.0 | 0.0 | 0.00 | 0.00 | 0.00 | 93 | 1019.9 |
| 20260509122922 | 45 | 0 | 0.0 | 0.0 | 0.00 | 0.00 | 0.00 | 93 | 1020.1 |
| 20260509122409 | 45 | 0 | 0.0 | 0.0 | 0.00 | 0.00 | 0.00 | 93 | 1020.2 |
| 20260509121856 | 45 | 0 | 0.0 | 0.0 | 0.00 | 0.00 | 0.00 | 93 | 1020.2 |
| 20260509121343 | 45 | 0 | 0.0 | 0.0 | 0.00 | 0.00 | 0.00 | 93 | 1020.2 |
| 20260509120830 | 45 | 0 | 0.0 | 0.0 | 0.00 | 0.00 | 0.00 | 93 | 1020.4 |
| 20260509120317 | 45 | 0 | 0.0 | 0.0 | 0.00 | 0.00 | 0.00 | 92 | 1020.4 |
| 20260509115804 | 45 | 0 | 0.0 | 0.0 | 0.00 | 0.00 | 0.00 | 93 | 1020.5 |
| 20260509115251 | 45 | 0 | 0.0 | 0.0 | 0.00 | 0.00 | 0.00 | 92 | 1020.4 |
| 20260509114738 | 45 | 0 | 0.0 | 0.0 | 0.00 | 0.00 | 0.00 | 92 | 1020.4 |
| 20260509113712 | 45 | 0 | 0.0 | 0.0 | 0.00 | 0.00 | 0.00 | 92 | 1020.5 |
| 20260509113159 | 45 | 0 | 0.0 | 0.0 | 0.00 | 0.00 | 0.00 | 92 | 1020.5 |
| 20260509112646 | 45 | 0 | 0.0 | 0.0 | 0.00 | 0.00 | 0.00 | 92 | 1020.7 |
| 20260509112133 | 45 | 0 | 0.0 | 0.0 | 0.00 | 0.00 | 0.00 | 92 | 1020.7 |
| 20260509111620 | 45 | 0 | 0.0 | 0.0 | 0.00 | 0.00 | 0.00 | 92 | 1020.8 |
| 20260509111109 | 45 | 0 | 0.0 | 0.0 | 0.00 | 0.00 | 0.00 | 92 | 1020.8 |
| 20260509110554 | 45 | 0 | 0.0 | 0.0 | 0.00 | 0.00 | 0.00 | 92 | 1020.7 |
| 20260509110041 | 46 | 0 | 0.0 | 0.0 | 0.00 | 0.00 | 0.00 | 92 | 1020.6 |
| 20260509105528 | 46 | 0 | 0.0 | 0.0 | 0.00 | 0.00 | 0.00 | 92 | 1020.7 |
| 20260509104502 | 46 | 0 | 0.0 | 0.0 | 0.00 | 0.00 | 0.00 | 92 | 1020.5 |
| 20260509103951 | 45 | 0 | 0.0 | 0.0 | 0.00 | 0.00 | 0.00 | 92 | 1020.5 |
| 20260509103436 | 45 | 0 | 0.0 | 0.0 | 0.00 | 0.00 | 0.00 | 92 | 1020.5 |
| 20260509102923 | 45 | 0 | 0.0 | 0.0 | 0.00 | 0.00 | 0.00 | 92 | 1020.5 |
| 20260509102410 | 45 | 0 | 0.0 | 0.0 | 0.00 | 0.00 | 0.00 | 91 | 1020.5 |
| 20260509101858 | 46 | 0 | 0.0 | 0.0 | 0.00 | 0.00 | 0.00 | 92 | 1020.7 |
| 20260509101344 | 45 | 0 | 0.0 | 0.0 | 0.00 | 0.00 | 0.00 | 92 | 1020.8 |
| 20260509100831 | 45 | 0 | 0.0 | 0.0 | 0.00 | 0.00 | 0.00 | 91 | 1020.9 |
| 20260509100318 | 45 | 0 | 0.0 | 0.0 | 0.00 | 0.00 | 0.00 | 92 | 1020.9 |
| 20260509095252 | 45 | 0 | 0.0 | 0.0 | 0.00 | 0.00 | 0.00 | 91 | 1021.1 |
| 20260509094739 | 45 | 0 | 0.0 | 0.0 | 0.00 | 0.00 | 0.00 | 91 | 1021.1 |
| 20260509094226 | 45 | 0 | 0.0 | 0.0 | 0.00 | 0.00 | 0.00 | 91 | 1021.2 |
| 20260509093713 | 45 | 0 | 0.0 | 0.0 | 0.00 | 0.00 | 0.00 | 91 | 1021.1 |
| 20260509093200 | 45 | 0 | 0.0 | 0.0 | 0.00 | 0.00 | 0.00 | 91 | 1021.0 |
| 20260509092647 | 45 | 0 | 0.0 | 0.0 | 0.00 | 0.00 | 0.00 | 91 | 1021.0 |
| 20260509092134 | 45 | 0 | 0.0 | 0.0 | 0.00 | 0.00 | 0.00 | 91 | 1021.0 |
| 20260509091621 | 45 | 0 | 0.0 | 0.0 | 0.00 | 0.00 | 0.00 | 91 | 1020.9 |
| 20260509091108 | 46 | 0 | 0.0 | 0.0 | 0.00 | 0.00 | 0.00 | 91 | 1020.9 |
| 20260509090555 | 46 | 0 | 0.0 | 0.0 | 0.00 | 0.00 | 0.00 | 91 | 1020.9 |
| 20260509085529 | 46 | 0 | 0.0 | 0.0 | 0.00 | 0.00 | 0.00 | 91 | 1021.1 |
| 20260509085017 | 45 | 0 | 0.0 | 0.0 | 0.00 | 0.00 | 0.00 | 91 | 1021.0 |
| 20260509084503 | 46 | 0 | 0.0 | 0.0 | 0.00 | 0.00 | 0.00 | 91 | 1021.2 |
| 20260509083950 | 46 | 0 | 0.0 | 0.0 | 0.00 | 0.00 | 0.00 | 90 | 1021.3 |
| 20260509083437 | 46 | 0 | 0.0 | 0.0 | 0.00 | 0.00 | 0.00 | 90 | 1021.3 |
| 20260509082924 | 46 | 0 | 0.0 | 0.0 | 0.00 | 0.00 | 0.00 | 90 | 1021.3 |
| 20260509082411 | 46 | 0 | 0.0 | 0.0 | 0.00 | 0.00 | 0.00 | 90 | 1021.3 |
| 20260509081858 | 46 | 0 | 0.0 | 0.0 | 0.00 | 0.00 | 0.00 | 90 | 1021.4 |
| 20260509081345 | 46 | 0 | 0.0 | 0.0 | 0.00 | 0.00 | 0.00 | 90 | 1021.4 |
| 20260509080832 | 46 | 0 | 0.0 | 0.0 | 0.00 | 0.00 | 0.00 | 90 | 1021.5 |
| 20260509080319 | 46 | 0 | 0.0 | 0.0 | 0.00 | 0.00 | 0.00 | 90 | 1021.5 |
| 20260509075806 | 46 | 0 | 0.0 | 0.0 | 0.00 | 0.00 | 0.00 | 90 | 1021.5 |
| 20260509075253 | 46 | 0 | 0.0 | 0.0 | 0.00 | 0.00 | 0.00 | 90 | 1021.5 |
| 20260509074740 | 46 | 0 | 0.0 | 0.0 | 0.00 | 0.00 | 0.00 | 89 | 1021.6 |
| 20260509074227 | 46 | 0 | 0.0 | 0.0 | 0.00 | 0.00 | 0.00 | 89 | 1021.7 |
| 20260509073714 | 46 | 0 | 0.0 | 0.0 | 0.00 | 0.00 | 0.00 | 89 | 1021.6 |
| 20260509073201 | 46 | 0 | 0.0 | 0.0 | 0.00 | 0.00 | 0.00 | 89 | 1021.7 |
| 20260509072648 | 46 | 0 | 0.0 | 0.0 | 0.00 | 0.00 | 0.00 | 89 | 1021.7 |
| 20260509072135 | 46 | 0 | 0.0 | 0.0 | 0.00 | 0.00 | 0.00 | 89 | 1021.7 |
| 20260509071622 | 47 | 0 | 0.0 | 0.0 | 0.00 | 0.00 | 0.00 | 89 | 1021.7 |
| 20260509071110 | 47 | 0 | 0.0 | 0.0 | 0.00 | 0.00 | 0.00 | 88 | 1021.8 |
| 20260509070556 | 47 | 0 | 0.0 | 0.0 | 0.00 | 0.00 | 0.00 | 88 | 1021.9 |
| 20260509070043 | 47 | 0 | 0.0 | 0.0 | 0.00 | 0.00 | 0.00 | 88 | 1021.8 |
| 20260509065530 | 47 | 0 | 0.0 | 0.0 | 0.00 | 0.00 | 0.00 | 88 | 1021.9 |
| 20260509065017 | 47 | 0 | 0.0 | 0.0 | 0.00 | 0.00 | 0.00 | 88 | 1021.9 |
| 20260509064504 | 47 | 0 | 0.0 | 0.0 | 0.00 | 0.00 | 0.00 | 88 | 1021.9 |
| 20260509063951 | 47 | 0 | 0.0 | 0.0 | 0.00 | 0.00 | 0.00 | 88 | 1021.9 |
| 20260509063438 | 47 | 0 | 0.0 | 0.0 | 0.00 | 0.00 | 0.00 | 87 | 1022.0 |
| 20260509062925 | 47 | 0 | 0.0 | 0.0 | 0.00 | 0.00 | 0.00 | 87 | 1022.0 |
| 20260509062412 | 47 | 0 | 0.0 | 0.0 | 0.00 | 0.00 | 0.00 | 87 | 1022.1 |
| 20260509061859 | 48 | 0 | 0.0 | 0.0 | 0.00 | 0.00 | 0.00 | 87 | 1022.2 |
| 20260509061346 | 48 | 0 | 0.0 | 0.0 | 0.00 | 0.00 | 0.00 | 86 | 1022.2 |
| 20260509060833 | 48 | 0 | 0.0 | 0.0 | 0.00 | 0.00 | 0.00 | 86 | 1022.3 |
| 20260509060320 | 48 | 0 | 0.0 | 0.0 | 0.00 | 0.00 | 0.00 | 86 | 1022.3 |
| 20260509055807 | 48 | 0 | 0.0 | 0.0 | 0.00 | 0.00 | 0.00 | 86 | 1022.4 |
| 20260509055254 | 48 | 0 | 0.0 | 0.0 | 0.00 | 0.00 | 0.00 | 86 | 1022.4 |
| 20260509054741 | 48 | 0 | 0.0 | 0.0 | 0.00 | 0.00 | 0.00 | 86 | 1022.4 |
| 20260509054228 | 48 | 0 | 0.0 | 0.0 | 0.00 | 0.00 | 0.00 | 85 | 1022.4 |
| 20260509053715 | 48 | 0 | 0.0 | 0.0 | 0.00 | 0.00 | 0.00 | 85 | 1022.4 |
| 20260509053202 | 48 | 0 | 0.0 | 0.0 | 0.00 | 0.00 | 0.00 | 85 | 1022.4 |
| 20260509052649 | 48 | 0 | 0.0 | 0.0 | 0.00 | 0.00 | 0.00 | 84 | 1022.4 |
| 20260509051623 | 49 | 0 | 0.0 | 0.0 | 0.00 | 0.00 | 0.00 | 84 | 1022.5 |
| 20260509051110 | 49 | 0 | 0.0 | 0.0 | 0.00 | 0.00 | 0.00 | 84 | 1022.5 |
| 20260509050557 | 49 | 0 | 0.0 | 0.0 | 0.00 | 0.00 | 0.00 | 84 | 1022.5 |
| 20260509050044 | 49 | 0 | 0.0 | 0.0 | 0.00 | 0.00 | 0.00 | 83 | 1022.5 |
| 20260509045531 | 49 | 0 | 0.0 | 0.0 | 0.00 | 0.00 | 0.00 | 83 | 1022.5 |
| 20260509045018 | 49 | 0 | 0.0 | 0.0 | 0.00 | 0.00 | 0.00 | 83 | 1022.4 |
| 20260509044505 | 49 | 0 | 0.0 | 0.0 | 0.00 | 0.00 | 0.00 | 82 | 1022.3 |
| 20260509043952 | 49 | 0 | 0.0 | 0.0 | 0.00 | 0.00 | 0.00 | 82 | 1022.4 |
| 20260509043439 | 50 | 0 | 0.0 | 0.0 | 0.00 | 0.00 | 0.00 | 82 | 1022.4 |
| 20260509042926 | 50 | 0 | 0.0 | 0.0 | 0.00 | 0.00 | 0.00 | 81 | 1022.4 |
| 20260509042414 | 50 | 0 | 0.0 | 0.0 | 0.00 | 0.00 | 0.00 | 81 | 1022.4 |
| 20260509041900 | 50 | 0 | 0.0 | 0.0 | 0.00 | 0.00 | 0.00 | 81 | 1022.4 |
| 20260509041347 | 51 | 0 | 0.0 | 0.0 | 0.00 | 0.00 | 0.00 | 81 | 1022.3 |
| 20260509040834 | 51 | 0 | 0.0 | 0.0 | 0.00 | 0.00 | 0.00 | 80 | 1022.3 |
| 20260509040321 | 51 | 0 | 0.0 | 0.0 | 0.00 | 0.00 | 0.00 | 80 | 1022.2 |
| 20260509035808 | 51 | 0 | 0.0 | 0.0 | 0.00 | 0.00 | 0.00 | 80 | 1022.2 |
| 20260509035255 | 51 | 0 | 0.0 | 0.0 | 0.00 | 0.00 | 0.00 | 80 | 1022.2 |
| 20260509034742 | 51 | 0 | 0.0 | 0.0 | 0.00 | 0.00 | 0.00 | 79 | 1022.1 |
| 20260509034229 | 52 | 0 | 0.0 | 0.0 | 0.00 | 0.00 | 0.00 | 79 | 1022.0 |
| 20260509033716 | 52 | 0 | 0.0 | 0.0 | 0.00 | 0.00 | 0.00 | 79 | 1022.1 |
| 20260509033203 | 52 | 0 | 0.0 | 0.0 | 0.00 | 0.00 | 0.00 | 79 | 1022.0 |
| 20260509032650 | 52 | 0 | 0.0 | 0.0 | 0.00 | 0.00 | 0.00 | 79 | 1022.1 |
| 20260509032137 | 52 | 0 | 0.0 | 0.0 | 0.00 | 0.00 | 0.00 | 79 | 1022.1 |
| 20260509031624 | 53 | 0 | 0.0 | 0.0 | 0.00 | 0.00 | 0.00 | 79 | 1022.1 |
| 20260509030558 | 53 | 0 | 0.0 | 4.0 | 0.00 | 0.00 | 0.00 | 78 | 1022.2 |
| 20260509025532 | 53 | 95 | 0.0 | 4.0 | 0.00 | 0.00 | 0.00 | 78 | 1022.1 |
| 20260509025019 | 53 | 0 | 0.0 | 7.0 | 0.00 | 0.00 | 0.00 | 78 | 1022.2 |
| 20260509024506 | 53 | 0 | 0.0 | 7.0 | 0.00 | 0.00 | 0.00 | 78 | 1022.1 |
| 20260509023953 | 53 | 0 | 0.0 | 7.0 | 0.00 | 0.00 | 0.00 | 78 | 1022.1 |
| 20260509023440 | 54 | 0 | 0.0 | 0.0 | 0.00 | 0.00 | 0.00 | 78 | 1022.1 |
| 20260509022927 | 53 | 0 | 0.0 | 7.0 | 0.00 | 0.00 | 0.00 | 78 | 1022.1 |
| 20260509022414 | 53 | 0 | 0.0 | 7.0 | 0.00 | 0.00 | 0.00 | 78 | 1022.1 |
| 20260509021901 | 54 | 296 | 0.0 | 7.0 | 0.00 | 0.00 | 0.00 | 78 | 1022.1 |
| 20260509021348 | 54 | 0 | 0.0 | 5.0 | 0.00 | 0.00 | 0.00 | 78 | 1022.1 |
| 20260509020835 | 54 | 0 | 1.0 | 1.0 | 0.00 | 0.00 | 0.00 | 77 | 1022.1 |
| 20260509020322 | 54 | 295 | 1.0 | 7.0 | 0.00 | 0.00 | 0.00 | 77 | 1022.1 |
| 20260509015809 | 53 | 0 | 4.0 | 7.0 | 0.00 | 0.00 | 0.00 | 77 | 1022.0 |
| 20260509015256 | 53 | 306 | 4.0 | 7.0 | 0.00 | 0.00 | 0.00 | 77 | 1022.0 |
| 20260509014743 | 54 | 357 | 0.0 | 8.0 | 0.00 | 0.00 | 0.00 | 77 | 1021.9 |
| 20260509014230 | 53 | 327 | 0.0 | 8.0 | 0.00 | 0.00 | 0.00 | 78 | 1021.8 |
| 20260509013717 | 54 | 345 | 2.0 | 8.0 | 0.00 | 0.00 | 0.00 | 78 | 1021.8 |
| 20260509013204 | 54 | 331 | 3.0 | 9.0 | 0.00 | 0.00 | 0.00 | 77 | 1021.8 |
| 20260509012137 | 53 | 287 | 5.0 | 9.0 | 0.00 | 0.00 | 0.00 | 78 | 1022.0 |
| 20260509011625 | 53 | 319 | 5.0 | 7.0 | 0.00 | 0.00 | 0.00 | 77 | 1022.0 |
| 20260509011111 | 53 | 313 | 5.0 | 7.0 | 0.00 | 0.00 | 0.00 | 78 | 1022.1 |
| 20260509010559 | 53 | 320 | 5.0 | 7.0 | 0.00 | 0.00 | 0.00 | 77 | 1022.2 |
| 20260509010046 | 53 | 336 | 5.0 | 7.0 | 0.00 | 0.00 | 0.00 | 77 | 1022.3 |
| 20260509005019 | 53 | 327 | 4.0 | 8.0 | 0.00 | 0.00 | 0.00 | 77 | 1022.4 |
| 20260509004506 | 54 | 289 | 3.0 | 8.0 | 0.00 | 0.00 | 0.00 | 77 | 1022.4 |
| 20260509003953 | 53 | 331 | 3.0 | 7.0 | 0.00 | 0.00 | 0.00 | 78 | 1022.5 |
| 20260509003440 | 53 | 299 | 1.0 | 8.0 | 0.00 | 0.00 | 0.00 | 78 | 1022.5 |
| 20260509002414 | 53 | 292 | 5.0 | 8.0 | 0.00 | 0.00 | 0.00 | 77 | 1022.6 |
| 20260509001901 | 53 | 302 | 5.0 | 8.0 | 0.00 | 0.00 | 0.00 | 77 | 1022.6 |
| 20260509001348 | 53 | 288 | 4.0 | 7.0 | 0.00 | 0.00 | 0.00 | 77 | 1022.6 |
| 20260509000322 | 53 | 282 | 5.0 | 7.0 | 0.00 | 0.00 | 0.00 | 76 | 1022.7 |
| 20260508234743 | 53 | 301 | 6.0 | 7.0 | 0.00 | 0.00 | 0.00 | 76 | 1022.7 |
| 20260508233717 | 53 | 320 | 3.0 | 7.0 | 0.00 | 0.00 | 0.00 | 77 | 1022.9 |
| 20260508230559 | 53 | 303 | 5.0 | 9.0 | 0.00 | 0.00 | 0.00 | 76 | 1023.0 |
| 20260508222415 | 54 | 299 | 5.0 | 10.0 | 0.00 | 0.00 | 0.00 | 76 | 1022.8 |
| 20260508220323 | 53 | 289 | 4.0 | 11.0 | 0.00 | 0.00 | 0.00 | 76 | 1022.9 |
| 20260508213205 | 54 | 285 | 6.0 | 13.0 | 0.00 | 0.00 | 0.00 | 75 | 1022.7 |
| 20260508212652 | 54 | 289 | 6.0 | 13.0 | 0.00 | 0.00 | 0.00 | 74 | 1022.8 |
| 20260508212139 | 54 | 303 | 4.0 | 9.0 | 0.00 | 0.00 | 0.00 | 74 | 1022.8 |
| 20260508210600 | 55 | 298 | 4.0 | 11.0 | 0.00 | 0.00 | 0.00 | 74 | 1022.9 |
| 20260508210048 | 54 | 275 | 5.0 | 11.0 | 0.00 | 0.00 | 0.00 | 75 | 1022.9 |
| 20260508205534 | 54 | 261 | 3.0 | 10.0 | 0.00 | 0.00 | 0.00 | 75 | 1022.8 |
| 20260508204508 | 54 | 310 | 6.0 | 10.0 | 0.00 | 0.00 | 0.00 | 74 | 1022.8 |
| 20260508203956 | 54 | 268 | 3.0 | 6.0 | 0.00 | 0.00 | 0.00 | 75 | 1022.8 |
| 20260508203442 | 55 | 303 | 5.0 | 11.0 | 0.00 | 0.00 | 0.00 | 75 | 1022.8 |
| 20260508202416 | 53 | 271 | 5.0 | 11.0 | 0.00 | 0.00 | 0.00 | 75 | 1022.5 |
| 20260508201350 | 54 | 292 | 6.0 | 10.0 | 0.00 | 0.00 | 0.00 | 75 | 1022.4 |
| 20260508193206 | 54 | 305 | 5.0 | 9.0 | 0.00 | 0.00 | 0.00 | 76 | 1022.6 |
| 20260508192140 | 53 | 303 | 5.0 | 9.0 | 0.00 | 0.00 | 0.00 | 76 | 1022.6 |
| 20260508190048 | 53 | 310 | 6.0 | 9.0 | 0.00 | 0.00 | 0.00 | 75 | 1022.5 |
| 20260508185535 | 53 | 277 | 5.0 | 9.0 | 0.00 | 0.00 | 0.00 | 76 | 1022.5 |
| 20260508185022 | 53 | 310 | 5.0 | 7.0 | 0.00 | 0.00 | 0.00 | 76 | 1022.5 |
| 20260508184509 | 53 | 277 | 1.0 | 10.0 | 0.00 | 0.00 | 0.00 | 76 | 1022.6 |
| 20260508183956 | 53 | 309 | 3.0 | 10.0 | 0.00 | 0.00 | 0.00 | 77 | 1022.6 |
| 20260508183443 | 53 | 301 | 7.0 | 10.0 | 0.00 | 0.00 | 0.00 | 77 | 1022.7 |
| 20260508182930 | 53 | 273 | 4.0 | 9.0 | 0.00 | 0.00 | 0.00 | 77 | 1022.7 |
| 20260508182417 | 53 | 277 | 1.0 | 9.0 | 0.00 | 0.00 | 0.00 | 78 | 1022.7 |
| 20260508181904 | 53 | 273 | 4.0 | 9.0 | 0.00 | 0.00 | 0.00 | 78 | 1022.6 |
| 20260508181351 | 52 | 238 | 3.0 | 7.0 | 0.00 | 0.00 | 0.00 | 78 | 1022.7 |
| 20260508180838 | 52 | 287 | 2.0 | 8.0 | 0.00 | 0.00 | 0.00 | 78 | 1022.7 |
| 20260508180325 | 52 | 291 | 5.0 | 8.0 | 0.00 | 0.00 | 0.00 | 78 | 1022.7 |
| 20260508175812 | 52 | 0 | 1.0 | 8.0 | 0.00 | 0.00 | 0.00 | 78 | 1022.8 |
| 20260508175259 | 52 | 268 | 0.0 | 9.0 | 0.00 | 0.00 | 0.00 | 78 | 1022.9 |
| 20260508174746 | 52 | 249 | 3.0 | 9.0 | 0.00 | 0.00 | 0.00 | 78 | 1022.9 |
| 20260508174233 | 52 | 245 | 0.0 | 9.0 | 0.00 | 0.00 | 0.00 | 78 | 1022.8 |
| 20260508173720 | 51 | 226 | 0.0 | 5.0 | 0.00 | 0.00 | 0.00 | 78 | 1022.8 |
| 20260508173207 | 51 | 215 | 0.0 | 5.0 | 0.00 | 0.00 | 0.00 | 78 | 1022.7 |